[[{"header":{"parameterUnit":"m.s-1","parameterCategory":2,"la1":30.2991,"la2":30.254,"lo1":-89.0895,"lo2":-89.0444,"dy":0.0017,"dx":0.0017,"nx":28,"ny":28,"refTime":"2025-03-06T09:00:00:Z","depth":"0","parameterNumber":2,"parameterNumberName":"U-component_of_CURRENTS"},"data":[0,0,0,0,0,0,0,0,0,0,0,0,0,0,0,0,0,0,0,0,0,0,0,0,0,0,0,0,0,0,0,0,0,0,0,0,0,0,0,0,0,0,0,0,0,0,0,0,0,0,0,0,0,0,0,0,0,0,0.1711,0.1711,0,0.1744,0.1744,0.1745,0.1769,0.177,0.177,0.177,0.1816,0.1817,0.1818,0,0,0,0,0,0,0,0,0,0,0,0,0,0.1686,0.1687,0.1711,0.1711,0.1712,0.1744,0.1744,0.1745,0.1769,0.177,0.177,0.177,0.1816,0.1817,0.1818,0,0,0,0,0,0,0,0,0,0,0,0,0,0.1706,0.1687,0.1711,0.1728,0.173,0.1744,0.1744,0.1745,0.1769,0.177,0.177,0.177,0.1816,0.1817,0.1819,0.1822,0,0,0.1823,0.1824,0,0,0,0,0,0,0,0,0.1705,0.1707,0.1725,0.1727,0.1729,0.1753,0.1753,0.1771,0.1769,0.1754,0.177,0.177,0.1796,0.1799,0.1805,0.1824,0.1826,0.1823,0.1824,0.1825,0.1825,0,0,0,0,0,0,0,0.1703,0.1706,0.1724,0.1725,0.1728,0.1739,0.1742,0.1756,0.1773,0.1756,0.1758,0.1761,0.1797,0.1803,0.1806,0.1827,0.1823,0.1825,0.1826,0.1826,0.1877,0.1877,0,0,0,0,0,0,0.1698,0.1704,0.1723,0.1725,0.1717,0.174,0.1743,0.1745,0.1773,0.1777,0.1761,0.1762,0.18,0.1804,0.1808,0.1847,0.1825,0.1827,0.1827,0.1876,0.1877,0.1877,0,0,0,0,0,0,0.1697,0.1699,0.1722,0.1715,0.1719,0.174,0.1742,0.1745,0.1752,0.1777,0.1781,0.1764,0.1801,0.1805,0.1826,0.1848,0.1827,0.1829,0.1876,0.1876,0.1877,0.1904,0,0,0,0,0,0,0.1696,0.1699,0.1697,0.1715,0.1719,0.1733,0.1741,0.1746,0.1754,0.1756,0.1781,0.1785,0.1801,0.1824,0.1828,0.1849,0.183,0.1875,0.1876,0.1877,0.1902,0.1905,0.1908,0,0,0,0,0,0.1695,0.169,0.1697,0.1699,0.1717,0.1733,0.1737,0.1752,0.1754,0.1759,0.1777,0.1785,0.1832,0.1825,0.183,0.1853,0.1875,0.1876,0.1877,0.1901,0.1905,0.1908,0,0,0,0,0,0,0.168,0.1693,0.17,0.17,0.1717,0.1737,0.174,0.1749,0.1767,0.1769,0.1789,0.1795,0.1824,0.1828,0.182,0.1868,0.1855,0.1857,0.1872,0.1875,0.1878,0.1899,0.1831,0,0,0,0,0,0.1675,0.1673,0.1694,0.1693,0.1701,0.172,0.1727,0.1739,0.1757,0.1765,0.1783,0.1803,0.183,0.1843,0.1863,0.1884,0.1944,0.1901,0.1904,0.1906,0.1925,0.2008,0.2021,0.188,0.188,0.188,0,0,0.1668,0.1675,0.1674,0.169,0.1703,0.1725,0.1725,0.1736,0.1764,0.1767,0.1801,0.1813,0.1837,0.1869,0.1882,0.1876,0.1986,0.1907,0.1909,0.1928,0.201,0.2024,0.2037,0.1881,0.1881,0.1881,0,0,0.1661,0.1661,0.1664,0.1681,0.1702,0.172,0.1723,0.1746,0.1764,0.1792,0.1808,0.1832,0.1861,0.1892,0.191,0.1935,0.1995,0.1935,0.1971,0.205,0.2063,0.2075,0.2212,0.2236,0.1938,0.1938,0.1938,0,0.1657,0.1668,0.1668,0.1686,0.1708,0.1719,0.1745,0.1765,0.1794,0.1819,0.1806,0.1873,0.1879,0.1944,0.1951,0.1945,0.202,0.1958,0.2057,0.2069,0.2081,0.2218,0.2244,0.1939,0.1939,0.1939,0.1939,0,0.1662,0.1678,0.1682,0.1713,0.1732,0.1753,0.1787,0.1809,0.1826,0.1853,0.1907,0.1922,0.1968,0.1967,0.1967,0.2052,0.2093,0.2052,0.2054,0.2098,0.2239,0.2266,0.1941,0.1941,0.194,0.194,0,0,0.1657,0.1681,0.1688,0.1715,0.1753,0.1775,0.1818,0.1871,0.192,0.1936,0.2011,0.2029,0.2038,0.2059,0.2064,0.2122,0.2269,0.2125,0.2128,0.2273,0.2508,0.253,0.2562,0.2249,0.2253,0.2256,0.259,0,0.1674,0.1709,0.1718,0.1771,0.1804,0.1832,0.1879,0.1926,0.1969,0.2041,0.2065,0.2131,0.2075,0.2112,0.2156,0.225,0.2335,0.2187,0.2434,0.2443,0.2465,0.259,0.2509,0.2798,0.2617,0.2621,0.2624,0,0.1699,0.1721,0.1765,0.1825,0.1842,0.1869,0.1961,0.2006,0.2096,0.2133,0.2189,0.2225,0.2327,0.2259,0.2453,0.2368,0.2444,0.2503,0.2516,0.2545,0.2513,0.2715,0.2854,0.2735,0.2666,0.2663,0.266,0,0.1728,0.1768,0.1804,0.1823,0.1882,0.191,0.1947,0.203,0.2102,0.2208,0.2292,0.2376,0.2483,0.2554,0.2672,0.2583,0.2911,0.2799,0.2901,0.2907,0.2892,0.2888,0.295,0.2942,0.2942,0.2941,0.294,0,0.1774,0.1818,0.1813,0.1843,0.1909,0.193,0.2025,0.2075,0.218,0.2304,0.2343,0.2483,0.2563,0.2743,0.2778,0.2974,0.3009,0.2967,0.3,0.2902,0.2895,0.2829,0.2765,0.2953,0.295,0.2948,0.2946,0,0.1853,0.184,0.1894,0.1919,0.1931,0.1986,0.2078,0.2161,0.2241,0.2417,0.2469,0.2645,0.2873,0.2982,0.318,0.3166,0.323,0.3352,0.3266,0.328,0.3173,0.3114,0.3169,0.3078,0.3509,0.3511,0.3514,0,0.1919,0.1936,0.1951,0.1995,0.2015,0.2082,0.2145,0.2196,0.2298,0.2527,0.2637,0.2895,0.3062,0.3382,0.3444,0.3585,0.34,0.3572,0.3338,0.3215,0.3175,0.2998,0.2901,0.3366,0.3367,0.3368,0.3368,0,0.2061,0.2037,0.2087,0.2129,0.2179,0.2243,0.2327,0.2392,0.2498,0.2629,0.285,0.2988,0.3297,0.3415,0.3604,0.3642,0.3386,0.3586,0.3473,0.3103,0.2905,0.2816,0.3137,0.3374,0.3373,0.3373,0.3373,0.3372,0.2194,0.2238,0.2256,0.231,0.2354,0.2396,0.2432,0.2522,0.2637,0.279,0.2956,0.3109,0.3306,0.3537,0.3574,0.3548,0.3461,0.3405,0.3372,0.3224,0.3028,0.3393,0.3628,0.3628,0.3629,0.363,0.363,0,0.234,0.2368,0.2439,0.2465,0.2498,0.2485,0.2556,0.2565,0.2649,0.2807,0.2944,0.3113,0.3255,0.3358,0.3428,0.3322,0.3136,0.3236,0.2937,0.2868,0.3235,0.3111,0.3225,0.3225,0.3225,0.3225,0.3226,0.3226,0.2441,0.2515,0.2513,0.2578,0.2584,0.2575,0.2585,0.2588,0.2652,0.2715,0.277,0.2865,0.3042,0.3233,0.3178,0.3111,0.2819,0.2773,0.2708,0.2924,0.2933,0.2942,0.2806,0.2855,0.2854,0.2208,0.2203,0.2199]},{"header":{"parameterUnit":"m.s-1","parameterCategory":2,"la1":30.2991,"la2":30.254,"lo1":-89.0895,"lo2":-89.0444,"dy":0.0017,"dx":0.0017,"nx":28,"ny":28,"refTime":"2025-03-06T09:00:00:Z","depth":"0","parameterNumber":3,"parameterNumberName":"V-component_of_CURRENTS"},"data":[0,0,0,0,0,0,0,0,0,0,0,0,0,0,0,0,0,0,0,0,0,0,0,0,0,0,0,0,0,0,0,0,0,0,0,0,0,0,0,0,0,0,0,0,0,0,0,0,0,0,0,0,0,0,0,0,0,0,-0.0119,-0.012,0,-0.0161,-0.0161,-0.0162,-0.02,-0.0201,-0.0201,-0.0201,-0.0268,-0.0269,-0.0271,0,0,0,0,0,0,0,0,0,0,0,0,0,-0.0101,-0.0101,-0.0119,-0.012,-0.012,-0.016,-0.0161,-0.0162,-0.02,-0.0201,-0.0201,-0.0202,-0.0268,-0.0269,-0.0271,0,0,0,0,0,0,0,0,0,0,0,0,0,-0.0123,-0.0101,-0.0119,-0.0144,-0.0146,-0.016,-0.0161,-0.0162,-0.02,-0.0201,-0.0201,-0.0202,-0.0267,-0.0269,-0.0271,-0.0271,0,0,-0.0278,-0.0278,0,0,0,0,0,0,0,0,-0.0121,-0.0123,-0.014,-0.0142,-0.0145,-0.0175,-0.0179,-0.02,-0.02,-0.018,-0.0202,-0.0202,-0.0239,-0.0243,-0.025,-0.0274,-0.0277,-0.0278,-0.0279,-0.028,-0.028,0,0,0,0,0,0,0,-0.012,-0.0122,-0.0136,-0.014,-0.0143,-0.0162,-0.0166,-0.0183,-0.0206,-0.0182,-0.0185,-0.0188,-0.024,-0.0248,-0.0252,-0.0278,-0.0278,-0.0279,-0.0281,-0.0282,-0.0316,-0.0316,0,0,0,0,0,0,-0.0111,-0.012,-0.0135,-0.0137,-0.0134,-0.0162,-0.0166,-0.0165,-0.0206,-0.0212,-0.0188,-0.019,-0.0244,-0.0249,-0.0254,-0.0264,-0.028,-0.0282,-0.0283,-0.0316,-0.0316,-0.0316,0,0,0,0,0,0,-0.011,-0.0112,-0.0133,-0.013,-0.0134,-0.0161,-0.0161,-0.0166,-0.0173,-0.021,-0.0217,-0.0189,-0.0245,-0.0251,-0.0266,-0.0266,-0.0283,-0.0285,-0.0317,-0.0316,-0.0316,-0.0278,0,0,0,0,0,0,-0.011,-0.0111,-0.0107,-0.0129,-0.0133,-0.0135,-0.016,-0.0166,-0.0174,-0.0177,-0.0213,-0.022,-0.0246,-0.0262,-0.0268,-0.027,-0.0286,-0.0317,-0.0317,-0.0316,-0.028,-0.0277,-0.0274,0,0,0,0,0,-0.0109,-0.0095,-0.0107,-0.0109,-0.0127,-0.0134,-0.0138,-0.016,-0.0173,-0.017,-0.0195,-0.0219,-0.0263,-0.0263,-0.027,-0.0273,-0.0318,-0.0317,-0.0316,-0.0281,-0.0277,-0.0274,0,0,0,0,0,0,-0.0079,-0.0098,-0.0112,-0.0103,-0.0116,-0.014,-0.0138,-0.0154,-0.0171,-0.0175,-0.0212,-0.022,-0.0235,-0.0254,-0.0254,-0.028,-0.0295,-0.0295,-0.0266,-0.0263,-0.026,-0.0264,-0.0288,0,0,0,0,0,-0.0071,-0.007,-0.0091,-0.0083,-0.0088,-0.0113,-0.0118,-0.0133,-0.0151,-0.016,-0.0185,-0.0212,-0.0236,-0.0249,-0.027,-0.028,-0.0281,-0.0287,-0.0284,-0.0281,-0.0288,-0.03,-0.0298,-0.0313,-0.0313,-0.0313,0,0,-0.0058,-0.0068,-0.0067,-0.0078,-0.009,-0.009,-0.0117,-0.012,-0.0123,-0.0164,-0.0173,-0.02,-0.0235,-0.025,-0.0259,-0.0267,-0.0266,-0.028,-0.0278,-0.0286,-0.0299,-0.0298,-0.0296,-0.0313,-0.0313,-0.0313,0,0,-0.0027,-0.0038,-0.0028,-0.0037,-0.0052,-0.0067,-0.0065,-0.0086,-0.01,-0.0109,-0.0144,-0.0173,-0.0197,-0.0232,-0.0252,-0.0243,-0.0248,-0.0244,-0.0236,-0.0246,-0.0245,-0.0244,-0.0195,-0.0191,-0.0245,-0.0245,-0.0245,0,-0.0009,-0.0003,-0.0025,-0.0019,-0.0023,-0.0054,-0.0044,-0.006,-0.0083,-0.0094,-0.0105,-0.0159,-0.0194,-0.0225,-0.023,-0.0238,-0.0221,-0.0246,-0.0242,-0.0242,-0.0242,-0.0192,-0.0187,-0.0243,-0.0243,-0.0243,-0.0243,0,0.0023,0.0027,0.0035,0.0028,0.0022,0.0028,0.0002,-0.0006,-0.0026,-0.0048,-0.0077,-0.0124,-0.0157,-0.0176,-0.0206,-0.0226,-0.0202,-0.0234,-0.0251,-0.0238,-0.0186,-0.0181,-0.024,-0.0241,-0.0241,-0.0242,0,0,0.0069,0.0059,0.0061,0.0064,0.0047,0.0048,0.0042,0.0025,0.0031,-0.0014,-0.0005,-0.0086,-0.0114,-0.0139,-0.0179,-0.0206,-0.0186,-0.022,-0.0221,-0.0168,-0.0157,-0.0112,-0.0103,-0.0214,-0.0214,-0.0215,-0.0102,0,0.0101,0.0122,0.0105,0.0123,0.0133,0.0101,0.0102,0.008,0.0065,0.007,-0.0001,-0.0,-0.0097,-0.0091,-0.0147,-0.0164,-0.0181,-0.0211,-0.0181,-0.0179,-0.0141,-0.0101,-0.0123,-0.0023,-0.0098,-0.0097,-0.0097,0,0.0139,0.0146,0.017,0.017,0.0172,0.0176,0.0176,0.0177,0.0159,0.0155,0.0115,0.0089,0.0045,-0.0024,-0.0087,-0.0095,-0.0132,-0.0158,-0.0155,-0.0132,-0.0129,-0.0059,-0.0013,-0.0218,-0.0091,-0.0091,-0.0092,0,0.0184,0.0193,0.0212,0.0213,0.0208,0.0211,0.0212,0.0199,0.0236,0.0232,0.0295,0.0192,0.024,0.0114,0.0054,-0.0009,0.0025,-0.0063,-0.0058,-0.0052,-0.0077,-0.0074,-0.0231,-0.0113,-0.0114,-0.0114,-0.0114,0,0.023,0.025,0.0235,0.0249,0.0286,0.0259,0.0312,0.0301,0.0341,0.0442,0.0354,0.0459,0.0281,0.0284,0.0132,0.009,0.009,-0.004,-0.0029,-0.0057,-0.0054,-0.0239,-0.0345,-0.011,-0.0111,-0.0111,-0.0112,0,0.0295,0.0278,0.0311,0.0308,0.0313,0.0346,0.0409,0.0464,0.0492,0.064,0.0671,0.0706,0.0727,0.0564,0.0454,0.0279,0.0083,0.0156,0.0172,0.0179,-0.0071,-0.0171,-0.0253,-0.033,0.0148,0.015,0.0151,0,0.0344,0.0357,0.0372,0.0413,0.042,0.0469,0.0522,0.0538,0.0636,0.0826,0.0936,0.1022,0.1113,0.0974,0.0686,0.046,0.0236,0.0278,0.0106,-0.0072,-0.0177,-0.025,-0.0316,0.0116,0.0117,0.0118,0.0119,0,0.0448,0.0438,0.0474,0.0542,0.0597,0.0676,0.0766,0.0866,0.0958,0.1108,0.1356,0.1452,0.1365,0.1162,0.0855,0.065,0.0126,0.0289,0.0071,-0.0238,-0.0297,-0.0367,0.0073,0.0126,0.0125,0.0125,0.0124,0.0124,0.0552,0.0598,0.0636,0.0706,0.0781,0.0909,0.0995,0.1137,0.1328,0.158,0.1661,0.1825,0.1478,0.1067,0.0803,0.0232,0.0233,-0.0011,-0.0111,-0.0163,-0.028,0.0214,0.0287,0.0287,0.0287,0.0288,0.0288,0,0.0686,0.0727,0.0804,0.0898,0.1003,0.1001,0.118,0.1292,0.1543,0.1775,0.1969,0.1871,0.1442,0.0957,0.0225,-0.0144,-0.0319,-0.0361,-0.0538,-0.0585,-0.0179,-0.023,-0.0228,-0.0228,-0.0228,-0.0228,-0.0228,-0.0227,0.0778,0.0868,0.0888,0.1081,0.1148,0.1291,0.1393,0.1576,0.1743,0.2013,0.2095,0.2133,0.1692,0.0439,-0.0414,-0.0596,-0.0899,-0.0909,-0.1032,-0.085,-0.0829,-0.0808,-0.0887,-0.1023,-0.1024,-0.1431,-0.1436,-0.1439]}],[{"header":{"parameterUnit":"m.s-1","parameterCategory":2,"la1":30.2991,"la2":30.254,"lo1":-89.0895,"lo2":-89.0444,"dy":0.0017,"dx":0.0017,"nx":28,"ny":28,"refTime":"2025-03-06T09:00:00:Z","depth":"2","parameterNumber":2,"parameterNumberName":"U-component_of_CURRENTS"},"data":[0,0,0,0,0,0,0,0,0,0,0,0,0,0,0,0,0,0,0,0,0,0,0,0,0,0,0,0,0,0,0,0,0,0,0,0,0,0,0,0,0,0,0,0,0,0,0,0,0,0,0,0,0,0,0,0,0,0,0.1425,0.1426,0,0.1464,0.1465,0.1465,0.1486,0.1486,0.1486,0.1486,0.1523,0.1523,0.1524,0,0,0,0,0,0,0,0,0,0,0,0,0,0.1404,0.1404,0.1425,0.1426,0.1426,0.1464,0.1465,0.1465,0.1486,0.1486,0.1486,0.1486,0.1522,0.1523,0.1524,0,0,0,0,0,0,0,0,0,0,0,0,0,0.1424,0.1404,0.1425,0.1442,0.1444,0.1464,0.1465,0.1465,0.1486,0.1486,0.1486,0.1486,0.1522,0.1523,0.1525,0.153,0,0,0.1529,0.1529,0,0,0,0,0,0,0,0,0.1423,0.1425,0.1439,0.1441,0.1443,0.1471,0.1471,0.1487,0.1485,0.1469,0.1486,0.1486,0.1506,0.1508,0.1514,0.1531,0.1533,0.1529,0.153,0.153,0.153,0,0,0,0,0,0,0,0.1421,0.1423,0.144,0.1439,0.1442,0.1459,0.1462,0.1474,0.1485,0.147,0.1472,0.1478,0.1507,0.1513,0.1515,0.1533,0.1529,0.153,0.1531,0.1531,0.1579,0.1579,0,0,0,0,0,0,0.1416,0.1422,0.1439,0.1441,0.1434,0.146,0.1463,0.1461,0.1485,0.1489,0.1477,0.1478,0.151,0.1514,0.1516,0.156,0.153,0.1531,0.1532,0.1578,0.1579,0.1579,0,0,0,0,0,0,0.1415,0.1417,0.1437,0.1434,0.1437,0.146,0.1458,0.1462,0.1473,0.1491,0.1495,0.1486,0.1511,0.1515,0.1533,0.156,0.1532,0.1533,0.1578,0.1578,0.1579,0.1624,0,0,0,0,0,0,0.1414,0.1416,0.1415,0.1433,0.1437,0.1454,0.1458,0.1463,0.1477,0.1478,0.1499,0.1502,0.1511,0.1531,0.1535,0.1561,0.1534,0.1577,0.1578,0.1579,0.1622,0.1626,0.1629,0,0,0,0,0,0.1413,0.141,0.1414,0.1416,0.1434,0.1454,0.1458,0.1474,0.1477,0.1484,0.1498,0.1502,0.1539,0.1533,0.1537,0.1564,0.1577,0.1578,0.1579,0.162,0.1625,0.1629,0,0,0,0,0,0,0.1395,0.1412,0.1417,0.1417,0.1437,0.1458,0.1467,0.1476,0.1492,0.1495,0.1508,0.1512,0.1541,0.1539,0.1532,0.1578,0.1559,0.1561,0.1589,0.1594,0.1598,0.1625,0.1535,0,0,0,0,0,0.1391,0.1395,0.1415,0.1416,0.1427,0.1447,0.1457,0.1469,0.1486,0.1494,0.1508,0.1524,0.1548,0.1559,0.1574,0.1596,0.1635,0.1615,0.1619,0.1622,0.1646,0.1725,0.174,0.1583,0.1583,0.1583,0,0,0.1383,0.1394,0.1396,0.1414,0.143,0.1452,0.1453,0.1472,0.1495,0.1495,0.1526,0.1538,0.1555,0.1587,0.16,0.159,0.1686,0.1624,0.1627,0.1649,0.1728,0.1744,0.1758,0.1583,0.1583,0.1583,0,0,0.1379,0.1382,0.1391,0.141,0.1437,0.1454,0.146,0.1485,0.1502,0.1529,0.1541,0.1572,0.1592,0.1623,0.1638,0.167,0.1705,0.1666,0.1713,0.1789,0.1804,0.1817,0.1887,0.1906,0.1668,0.1669,0.1669,0,0.1373,0.1386,0.1397,0.1417,0.1439,0.1456,0.1481,0.1501,0.1529,0.1557,0.1542,0.1614,0.1617,0.1687,0.1695,0.1684,0.1731,0.1696,0.1798,0.1812,0.1825,0.1894,0.1914,0.1671,0.1671,0.167,0.167,0,0.1381,0.1398,0.1407,0.1441,0.1463,0.1486,0.1519,0.1543,0.1562,0.1593,0.1657,0.1673,0.1726,0.1723,0.1719,0.1812,0.1818,0.1796,0.1793,0.1844,0.1912,0.1933,0.1674,0.1673,0.1673,0.1672,0,0,0.1361,0.1406,0.1411,0.144,0.1481,0.1505,0.1546,0.1602,0.1652,0.1679,0.1761,0.1788,0.1814,0.1834,0.1841,0.1896,0.2013,0.1887,0.189,0.197,0.2194,0.2129,0.2146,0.2017,0.2021,0.2024,0.2206,0,0.1372,0.1414,0.1434,0.1486,0.1518,0.1552,0.1594,0.1646,0.1695,0.1775,0.182,0.1894,0.1853,0.1896,0.1946,0.2007,0.207,0.1966,0.2122,0.2127,0.2074,0.2168,0.1952,0.2091,0.2227,0.223,0.2233,0,0.1383,0.1415,0.1462,0.153,0.1547,0.1582,0.1672,0.171,0.1816,0.1858,0.1944,0.1995,0.2101,0.2049,0.2198,0.2139,0.2176,0.2207,0.2215,0.2158,0.2102,0.206,0.2124,0.2268,0.2265,0.2262,0.226,0,0.1387,0.1441,0.1482,0.1504,0.1575,0.1613,0.1656,0.1745,0.1813,0.1938,0.2027,0.2128,0.2221,0.2286,0.2341,0.2295,0.25,0.2442,0.2422,0.2418,0.2267,0.2243,0.2555,0.2555,0.2555,0.2554,0.2554,0,0.1406,0.1447,0.149,0.1522,0.1591,0.1627,0.172,0.1777,0.1895,0.2004,0.2085,0.2197,0.229,0.2407,0.242,0.2499,0.2571,0.2469,0.2475,0.2273,0.2248,0.2416,0.2397,0.2561,0.256,0.2558,0.2557,0,0.1427,0.1447,0.1505,0.1571,0.1601,0.1651,0.1769,0.1839,0.1942,0.21,0.2161,0.2313,0.2431,0.2508,0.2628,0.2616,0.2679,0.2677,0.2431,0.2403,0.2529,0.251,0.2703,0.2702,0.2702,0.2702,0.2701,0,0.1459,0.1476,0.1543,0.1578,0.1618,0.1697,0.1758,0.1858,0.1942,0.2157,0.2242,0.2413,0.2495,0.265,0.2619,0.2658,0.2693,0.2523,0.2382,0.2566,0.2552,0.2533,0.2516,0.2207,0.2203,0.2199,0.2196,0,0.1501,0.1502,0.1539,0.1606,0.1669,0.1741,0.1838,0.1904,0.2031,0.2142,0.2284,0.2371,0.2504,0.2434,0.2492,0.2473,0.2494,0.2453,0.2755,0.2185,0.2108,0.209,0.2088,0.2165,0.2168,0.217,0.2172,0.2173,0.1519,0.1532,0.1549,0.1608,0.1687,0.174,0.1757,0.1858,0.1936,0.2048,0.2187,0.2236,0.23,0.2233,0.2197,0.2169,0.231,0.2243,0.2251,0.2263,0.2154,0.2079,0.2112,0.2115,0.2117,0.2119,0.2121,0,0.1485,0.1491,0.1551,0.1578,0.1616,0.1694,0.1771,0.1735,0.1755,0.1908,0.1968,0.1833,0.1834,0.1901,0.1796,0.1828,0.1769,0.1786,0.1687,0.172,0.1749,0.161,0.1426,0.1424,0.1422,0.142,0,0,0.1449,0.1436,0.1442,0.1459,0.1513,0.1509,0.1518,0.15,0.1551,0.1522,0.1556,0.1725,0.1847,0.1597,0.1577,0.1491,0.1587,0.1438,0.1995,0.191,0.1936,0.2018,0.1842,0,0,0,0,0]},{"header":{"parameterUnit":"m.s-1","parameterCategory":2,"la1":30.2991,"la2":30.254,"lo1":-89.0895,"lo2":-89.0444,"dy":0.0017,"dx":0.0017,"nx":28,"ny":28,"refTime":"2025-03-06T09:00:00:Z","depth":"2","parameterNumber":3,"parameterNumberName":"V-component_of_CURRENTS"},"data":[0,0,0,0,0,0,0,0,0,0,0,0,0,0,0,0,0,0,0,0,0,0,0,0,0,0,0,0,0,0,0,0,0,0,0,0,0,0,0,0,0,0,0,0,0,0,0,0,0,0,0,0,0,0,0,0,0,0,-0.0146,-0.0146,0,-0.0185,-0.0186,-0.0186,-0.0217,-0.0218,-0.0218,-0.0218,-0.028,-0.0281,-0.0283,0,0,0,0,0,0,0,0,0,0,0,0,0,-0.0123,-0.0123,-0.0146,-0.0146,-0.0147,-0.0185,-0.0186,-0.0186,-0.0217,-0.0218,-0.0218,-0.0218,-0.028,-0.0281,-0.0283,0,0,0,0,0,0,0,0,0,0,0,0,0,-0.0145,-0.0123,-0.0146,-0.0167,-0.0169,-0.0185,-0.0186,-0.0187,-0.0217,-0.0218,-0.0218,-0.0218,-0.0279,-0.0281,-0.0283,-0.0288,0,0,-0.029,-0.0291,0,0,0,0,0,0,0,0,-0.0143,-0.0146,-0.0163,-0.0165,-0.0168,-0.0197,-0.02,-0.0222,-0.0217,-0.0199,-0.0218,-0.0219,-0.0254,-0.0258,-0.0265,-0.0291,-0.0294,-0.029,-0.0291,-0.0292,-0.0293,0,0,0,0,0,0,0,-0.0142,-0.0144,-0.0162,-0.0164,-0.0166,-0.0183,-0.0186,-0.0205,-0.0224,-0.0201,-0.0203,-0.0207,-0.0255,-0.0262,-0.0266,-0.0294,-0.029,-0.0292,-0.0293,-0.0294,-0.0335,-0.0335,0,0,0,0,0,0,-0.0134,-0.0143,-0.0161,-0.0163,-0.0156,-0.0183,-0.0186,-0.0187,-0.0224,-0.0229,-0.0206,-0.0208,-0.0259,-0.0264,-0.0269,-0.028,-0.0292,-0.0294,-0.0295,-0.0335,-0.0335,-0.0335,0,0,0,0,0,0,-0.0134,-0.0136,-0.0159,-0.0154,-0.0158,-0.0182,-0.0183,-0.0188,-0.0195,-0.0228,-0.0234,-0.0209,-0.0259,-0.0266,-0.0281,-0.0282,-0.0295,-0.0297,-0.0335,-0.0335,-0.0335,-0.03,0,0,0,0,0,0,-0.0133,-0.0135,-0.0133,-0.0153,-0.0158,-0.0163,-0.0183,-0.0188,-0.0197,-0.0199,-0.0232,-0.0238,-0.026,-0.0278,-0.0283,-0.0285,-0.0298,-0.0336,-0.0335,-0.0335,-0.0301,-0.0299,-0.0296,0,0,0,0,0,-0.0132,-0.0123,-0.0132,-0.0134,-0.0154,-0.0163,-0.0167,-0.0186,-0.0196,-0.0195,-0.0217,-0.0237,-0.028,-0.0279,-0.0286,-0.0289,-0.0336,-0.0335,-0.0335,-0.0302,-0.0299,-0.0296,0,0,0,0,0,0,-0.0109,-0.0126,-0.0136,-0.0133,-0.0146,-0.0168,-0.0168,-0.0182,-0.0198,-0.0201,-0.0233,-0.0241,-0.0256,-0.0274,-0.0272,-0.0299,-0.0312,-0.0313,-0.0285,-0.0282,-0.028,-0.0285,-0.03,0,0,0,0,0,-0.0103,-0.0103,-0.0122,-0.0119,-0.0124,-0.0146,-0.0152,-0.0164,-0.0182,-0.019,-0.0212,-0.0237,-0.0259,-0.0271,-0.0292,-0.0304,-0.0319,-0.0311,-0.0308,-0.0306,-0.0314,-0.0342,-0.0343,-0.0334,-0.0334,-0.0334,0,0,-0.0093,-0.0103,-0.0103,-0.0115,-0.0127,-0.0126,-0.015,-0.0155,-0.0156,-0.0194,-0.0201,-0.0228,-0.026,-0.0275,-0.0284,-0.0291,-0.0309,-0.0305,-0.0303,-0.0313,-0.0342,-0.0343,-0.0343,-0.0333,-0.0334,-0.0334,0,0,-0.0072,-0.0082,-0.0076,-0.0083,-0.0097,-0.0109,-0.0108,-0.0128,-0.0139,-0.0149,-0.0178,-0.0208,-0.0232,-0.0263,-0.028,-0.0276,-0.0294,-0.0278,-0.0271,-0.0297,-0.0298,-0.03,-0.0288,-0.0289,-0.0277,-0.0277,-0.0277,0,-0.006,-0.0055,-0.0075,-0.0069,-0.0071,-0.0098,-0.0089,-0.0102,-0.0125,-0.0134,-0.0145,-0.0202,-0.023,-0.0263,-0.0265,-0.0273,-0.0275,-0.0279,-0.0294,-0.0296,-0.0298,-0.0287,-0.0288,-0.0275,-0.0276,-0.0276,-0.0276,0,-0.0036,-0.0031,-0.0026,-0.003,-0.0033,-0.0029,-0.0049,-0.0055,-0.0072,-0.0094,-0.0127,-0.0173,-0.0207,-0.0223,-0.0245,-0.0275,-0.0265,-0.0286,-0.0301,-0.0297,-0.0284,-0.0286,-0.0273,-0.0273,-0.0274,-0.0274,0,0,-0.0012,-0.0009,-0.0008,-0.0,-0.0011,-0.001,-0.0011,-0.0023,-0.0022,-0.0065,-0.0068,-0.0139,-0.0171,-0.0194,-0.0231,-0.0267,-0.0277,-0.028,-0.0282,-0.0267,-0.0303,-0.0324,-0.0328,-0.0297,-0.0298,-0.0299,-0.0277,0,0.0013,0.0036,0.0027,0.005,0.006,0.004,0.0044,0.0027,0.0009,0.0002,-0.0068,-0.0083,-0.0156,-0.0162,-0.0217,-0.0248,-0.0285,-0.0279,-0.0312,-0.0313,-0.0332,-0.0334,-0.0321,-0.0305,-0.0279,-0.028,-0.028,0,0.0036,0.005,0.0077,0.0093,0.0096,0.0103,0.0106,0.0107,0.008,0.0069,0.0019,-0.0015,-0.0068,-0.0125,-0.0215,-0.0202,-0.0259,-0.0299,-0.0299,-0.034,-0.034,-0.0313,-0.031,-0.0283,-0.0283,-0.0283,-0.0283,0,0.0062,0.0084,0.0109,0.0113,0.0124,0.0132,0.0136,0.0121,0.0141,0.0119,0.0152,0.0052,0.0054,-0.0057,-0.0152,-0.017,-0.0238,-0.0267,-0.0348,-0.0347,-0.0357,-0.0358,-0.0353,-0.0353,-0.0353,-0.0353,-0.0353,0,0.0088,0.0106,0.0123,0.0136,0.0169,0.0163,0.0192,0.0188,0.0208,0.0257,0.019,0.0217,0.007,0.0018,-0.0108,-0.0223,-0.0205,-0.035,-0.0356,-0.0341,-0.034,-0.0348,-0.0347,-0.0352,-0.0352,-0.0352,-0.0352,0,0.0098,0.0114,0.0142,0.0167,0.0181,0.0198,0.0247,0.0275,0.0299,0.0375,0.039,0.0364,0.0285,0.0133,-0.0014,-0.0131,-0.0258,-0.0313,-0.027,-0.0274,-0.0355,-0.0353,-0.0384,-0.0385,-0.0386,-0.0386,-0.0387,0,0.0101,0.0116,0.0163,0.0191,0.0202,0.0236,0.0272,0.0306,0.0361,0.0467,0.0523,0.0489,0.0459,0.0241,-0.0005,-0.0221,-0.0261,-0.0322,-0.039,-0.0361,-0.0364,-0.036,-0.0358,-0.0363,-0.0363,-0.0364,-0.0364,0,0.0093,0.0109,0.0133,0.0204,0.025,0.0313,0.0379,0.0447,0.0525,0.0607,0.0705,0.0703,0.0502,0.0275,-0.0019,-0.0173,-0.0292,-0.0334,-0.0311,-0.037,-0.0344,-0.0345,-0.0343,-0.0366,-0.0366,-0.0365,-0.0365,-0.0365,0.0074,0.0093,0.0139,0.0205,0.028,0.039,0.0466,0.0565,0.0677,0.0835,0.0805,0.0818,0.0583,0.0181,-0.0064,-0.032,-0.0334,-0.0405,-0.0403,-0.0401,-0.0416,-0.0395,-0.0425,-0.0425,-0.0425,-0.0425,-0.0425,0,0.0046,0.0082,0.0142,0.0236,0.0339,0.0389,0.0545,0.065,0.0808,0.0899,0.0958,0.0734,0.0493,0.0232,-0.0155,-0.0381,-0.0401,-0.0435,-0.0408,-0.0405,-0.0403,-0.0417,-0.0427,-0.0428,-0.0428,-0.0428,0,0,0.0029,0.0068,0.0112,0.0264,0.0361,0.0537,0.0649,0.0814,0.0919,0.0988,0.0985,0.0916,0.059,0.0318,-0.0006,-0.0205,-0.0246,-0.0246,-0.0226,-0.0154,-0.0149,-0.0375,-0.0393,0,0,0,0,0]}],[{"header":{"parameterUnit":"m.s-1","parameterCategory":2,"la1":30.2991,"la2":30.254,"lo1":-89.0895,"lo2":-89.0444,"dy":0.0017,"dx":0.0017,"nx":28,"ny":28,"refTime":"2025-03-06T09:00:00:Z","depth":"4","parameterNumber":2,"parameterNumberName":"U-component_of_CURRENTS"},"data":[0,0,0,0,0,0,0,0,0,0,0,0,0,0,0,0,0,0,0,0,0,0,0,0,0,0,0,0,0,0,0,0,0,0,0,0,0,0,0,0,0,0,0,0,0,0,0,0,0,0,0,0,0,0,0,0,0,0,0.0907,0.0908,0,0.0962,0.0962,0.0963,0.0998,0.0998,0.0999,0.0999,0.1021,0.1021,0.1022,0,0,0,0,0,0,0,0,0,0,0,0,0,0.0791,0.0793,0.0907,0.0908,0.0909,0.0962,0.0962,0.0963,0.0998,0.0999,0.0999,0.1,0.1021,0.1021,0.1022,0,0,0,0,0,0,0,0,0,0,0,0,0,0.0841,0.0794,0.0907,0.0934,0.0937,0.0962,0.0962,0.0963,0.0998,0.0999,0.0999,0.1,0.1021,0.1021,0.1022,0.1011,0,0,0.1022,0.1023,0,0,0,0,0,0,0,0,0.0838,0.0845,0.0929,0.0932,0.0936,0.0976,0.093,0.0978,0.0998,0.0972,0.0999,0.1,0.1004,0.1006,0.1012,0.1012,0.1013,0.1022,0.1023,0.1023,0.1023,0,0,0,0,0,0,0,0.0835,0.0843,0.0926,0.093,0.0934,0.093,0.0938,0.0939,0.0982,0.0975,0.0978,0.0988,0.1005,0.1011,0.1013,0.1013,0.1022,0.1023,0.1023,0.1023,0.1052,0.1052,0,0,0,0,0,0,0.0835,0.084,0.0925,0.0928,0.089,0.0932,0.0941,0.096,0.0982,0.0987,0.0987,0.0989,0.1011,0.1012,0.1013,0.105,0.1023,0.1023,0.1023,0.1051,0.1052,0.1052,0,0,0,0,0,0,0.0832,0.0842,0.0922,0.0886,0.0897,0.0934,0.0955,0.0961,0.099,0.0993,0.0996,0.1012,0.1011,0.1013,0.1033,0.1049,0.1023,0.1023,0.105,0.1051,0.1052,0.1092,0,0,0,0,0,0,0.0829,0.0841,0.0863,0.0887,0.0899,0.0951,0.0955,0.0962,0.0995,0.0998,0.1015,0.1017,0.1012,0.1033,0.1033,0.1049,0.1024,0.105,0.1051,0.1052,0.109,0.1094,0.1098,0,0,0,0,0,0.0825,0.0851,0.0864,0.0875,0.0926,0.0952,0.0958,0.0984,0.0995,0.1011,0.1023,0.1017,0.104,0.1033,0.1034,0.1051,0.1049,0.1051,0.1052,0.1088,0.1094,0.1098,0,0,0,0,0,0,0.0812,0.0858,0.0873,0.0912,0.0937,0.0959,0.0982,0.0996,0.1018,0.1027,0.1026,0.1028,0.1051,0.1044,0.1037,0.1061,0.1043,0.1045,0.1071,0.1075,0.1079,0.1063,0.1024,0,0,0,0,0,0.0819,0.0855,0.0886,0.092,0.0935,0.0961,0.0979,0.0997,0.1016,0.1028,0.1039,0.1047,0.1052,0.1061,0.1063,0.1078,0.1088,0.1088,0.1092,0.1095,0.1082,0.1112,0.1118,0.1057,0.1057,0.1057,0,0,0.0824,0.0855,0.0875,0.0921,0.0944,0.0962,0.0974,0.1009,0.1023,0.1025,0.1053,0.1063,0.1059,0.1077,0.1086,0.1077,0.1126,0.1097,0.11,0.1085,0.1114,0.112,0.1126,0.1058,0.1058,0.1057,0,0,0.0839,0.0879,0.0907,0.0928,0.0968,0.0982,0.0996,0.1029,0.1046,0.1071,0.1074,0.1096,0.1107,0.1109,0.1108,0.1134,0.1145,0.114,0.1148,0.1179,0.1184,0.1189,0.1244,0.1253,0.1142,0.1143,0.1143,0,0.084,0.088,0.0917,0.094,0.0956,0.0991,0.1007,0.1027,0.1062,0.1076,0.1086,0.1107,0.1118,0.1124,0.1139,0.1143,0.117,0.1133,0.1185,0.1189,0.1193,0.1248,0.1258,0.1145,0.1144,0.1144,0.1144,0,0.0865,0.0897,0.0915,0.0955,0.0976,0.1,0.1026,0.1052,0.1079,0.1099,0.1125,0.1134,0.1154,0.1157,0.1158,0.1187,0.1202,0.1188,0.1174,0.1202,0.1259,0.1268,0.1148,0.1147,0.1146,0.1146,0,0,0.0853,0.092,0.0924,0.0938,0.0985,0.0999,0.1028,0.106,0.1085,0.1113,0.1143,0.1153,0.118,0.118,0.1185,0.1197,0.1273,0.1209,0.121,0.1267,0.1367,0.1269,0.127,0.1273,0.1274,0.1274,0.1408,0,0.0856,0.0896,0.093,0.0954,0.097,0.1005,0.103,0.1065,0.11,0.1143,0.1156,0.1193,0.1183,0.1209,0.1223,0.1272,0.1293,0.1239,0.1327,0.133,0.1241,0.1274,0.1277,0.1415,0.1417,0.1418,0.1419,0,0.0855,0.0884,0.091,0.0953,0.0965,0.0987,0.1029,0.106,0.1124,0.1156,0.1191,0.1225,0.1277,0.1252,0.1335,0.1308,0.1338,0.1351,0.1357,0.1248,0.1247,0.1372,0.1436,0.1435,0.1434,0.1432,0.1431,0,0.0808,0.0861,0.0881,0.0893,0.095,0.097,0.1011,0.107,0.1107,0.1181,0.123,0.1279,0.1325,0.1367,0.1422,0.1402,0.1495,0.1482,0.1409,0.1405,0.1437,0.143,0.1507,0.1507,0.1506,0.1506,0.1506,0,0.0778,0.0786,0.0865,0.0869,0.0893,0.0955,0.0989,0.1036,0.1125,0.1176,0.1251,0.1288,0.1351,0.1416,0.1455,0.1472,0.154,0.1411,0.1422,0.1457,0.145,0.1447,0.1438,0.1511,0.151,0.1509,0.1508,0,0.069,0.0753,0.076,0.0834,0.0866,0.0877,0.0976,0.1011,0.1114,0.1186,0.1226,0.1329,0.1418,0.147,0.1543,0.1504,0.1538,0.1511,0.1574,0.1587,0.1429,0.1422,0.1473,0.1471,0.1469,0.1467,0.1465,0,0.0637,0.0638,0.0712,0.0735,0.0766,0.0816,0.0863,0.0978,0.1024,0.1196,0.1227,0.1346,0.14,0.1456,0.1499,0.1564,0.1518,0.153,0.1434,0.1415,0.1422,0.1417,0.1412,0.1462,0.1461,0.1461,0.146,0,0.0509,0.0544,0.0562,0.0629,0.0677,0.0717,0.0803,0.084,0.0985,0.1095,0.121,0.1277,0.1351,0.1404,0.1438,0.1474,0.153,0.1507,0.1511,0.142,0.1401,0.1409,0.1407,0.1452,0.1454,0.1454,0.1455,0,0.0404,0.0388,0.0451,0.0497,0.056,0.0615,0.0671,0.0769,0.0847,0.1062,0.109,0.124,0.1336,0.1358,0.1411,0.1423,0.1396,0.1339,0.1351,0.136,0.1252,0.1207,0.1209,0,0,0,0,0,0.0308,0.0308,0.0332,0.0389,0.0457,0.0513,0.0632,0.0706,0.0859,0.0916,0.1012,0.1096,0.1187,0.1254,0.1244,0.1331,0.1376,0.131,0.1309,0.141,0.1419,0.1296,0,0,0,0,0,0,0.0249,0.0264,0.0288,0.0298,0.0335,0.0408,0.0488,0.0606,0.0649,0.0818,0.0877,0.1005,0.1102,0.1176,0.1212,0.1231,0.1203,0.14,0.1396,0.1405,0.1413,0.142,0.1297,0,0,0,0,0]},{"header":{"parameterUnit":"m.s-1","parameterCategory":2,"la1":30.2991,"la2":30.254,"lo1":-89.0895,"lo2":-89.0444,"dy":0.0017,"dx":0.0017,"nx":28,"ny":28,"refTime":"2025-03-06T09:00:00:Z","depth":"4","parameterNumber":3,"parameterNumberName":"V-component_of_CURRENTS"},"data":[0,0,0,0,0,0,0,0,0,0,0,0,0,0,0,0,0,0,0,0,0,0,0,0,0,0,0,0,0,0,0,0,0,0,0,0,0,0,0,0,0,0,0,0,0,0,0,0,0,0,0,0,0,0,0,0,0,0,-0.0046,-0.0047,0,-0.0078,-0.0079,-0.0079,-0.0097,-0.0097,-0.0097,-0.0097,-0.0128,-0.0129,-0.013,0,0,0,0,0,0,0,0,0,0,0,0,0,0.0014,0.0013,-0.0046,-0.0047,-0.0047,-0.0078,-0.0079,-0.0079,-0.0097,-0.0097,-0.0097,-0.0097,-0.0128,-0.0129,-0.013,0,0,0,0,0,0,0,0,0,0,0,0,0,-0.0014,0.0013,-0.0046,-0.006,-0.0062,-0.0078,-0.0079,-0.0079,-0.0097,-0.0097,-0.0097,-0.0097,-0.0128,-0.0129,-0.013,-0.0134,0,0,-0.0134,-0.0134,0,0,0,0,0,0,0,0,-0.0012,-0.0016,-0.0058,-0.0059,-0.0061,-0.0084,-0.0069,-0.0098,-0.0097,-0.0083,-0.0097,-0.0097,-0.0114,-0.0116,-0.0121,-0.0136,-0.0137,-0.0134,-0.0134,-0.0135,-0.0135,0,0,0,0,0,0,0,-0.001,-0.0015,-0.0058,-0.0058,-0.006,-0.006,-0.0064,-0.0074,-0.0097,-0.0084,-0.0086,-0.009,-0.0115,-0.012,-0.0122,-0.0138,-0.0134,-0.0135,-0.0135,-0.0136,-0.016,-0.016,0,0,0,0,0,0,-0.0008,-0.0013,-0.0057,-0.0059,-0.0037,-0.0061,-0.0065,-0.0076,-0.0097,-0.01,-0.009,-0.0091,-0.0118,-0.0121,-0.0123,-0.0119,-0.0135,-0.0136,-0.0136,-0.016,-0.016,-0.016,0,0,0,0,0,0,-0.0007,-0.0012,-0.0056,-0.0037,-0.0042,-0.0062,-0.0074,-0.0077,-0.0084,-0.0101,-0.0104,-0.0094,-0.0118,-0.0122,-0.0132,-0.0121,-0.0136,-0.0137,-0.016,-0.016,-0.016,-0.0118,0,0,0,0,0,0,-0.0005,-0.0011,-0.0019,-0.0037,-0.0044,-0.0064,-0.0074,-0.0077,-0.0087,-0.0088,-0.0106,-0.0109,-0.0119,-0.013,-0.0133,-0.0123,-0.0138,-0.016,-0.016,-0.016,-0.012,-0.0117,-0.0114,0,0,0,0,0,-0.0003,-0.0011,-0.0019,-0.0024,-0.0053,-0.0064,-0.0067,-0.0081,-0.0087,-0.0088,-0.0101,-0.0109,-0.0132,-0.0131,-0.0134,-0.0124,-0.016,-0.016,-0.016,-0.0121,-0.0117,-0.0114,0,0,0,0,0,0,0.0008,-0.0015,-0.0023,-0.004,-0.005,-0.0067,-0.0072,-0.0081,-0.0092,-0.0093,-0.0109,-0.0112,-0.0118,-0.013,-0.0129,-0.0133,-0.0147,-0.0148,-0.0116,-0.0113,-0.0111,-0.0076,-0.0139,0,0,0,0,0,0.0008,-0.0003,-0.0022,-0.0035,-0.004,-0.0055,-0.0062,-0.007,-0.0083,-0.0088,-0.0101,-0.0113,-0.012,-0.0124,-0.0136,-0.0137,-0.016,-0.0134,-0.0131,-0.0129,-0.0105,-0.0121,-0.0117,-0.016,-0.016,-0.016,0,0,0.0008,-0.0006,-0.0013,-0.0033,-0.0042,-0.0041,-0.006,-0.0068,-0.0063,-0.009,-0.0089,-0.0106,-0.012,-0.0121,-0.0124,-0.0129,-0.0141,-0.0129,-0.0127,-0.0103,-0.012,-0.0116,-0.0112,-0.016,-0.016,-0.016,0,0,0.0012,-0.0008,-0.0011,-0.0016,-0.0028,-0.0034,-0.0036,-0.0052,-0.0055,-0.0061,-0.0075,-0.008,-0.0101,-0.0099,-0.0102,-0.0092,-0.0128,-0.0105,-0.0059,-0.0076,-0.0072,-0.0068,-0.0139,-0.0142,-0.0101,-0.0101,-0.0101,0,0.0013,0.0008,-0.0012,-0.001,-0.0006,-0.0028,-0.0018,-0.0024,-0.0041,-0.0035,-0.0056,-0.0062,-0.0083,-0.0061,-0.006,-0.0082,-0.0117,-0.0069,-0.0071,-0.0067,-0.0065,-0.0137,-0.0141,-0.0099,-0.0099,-0.0099,-0.0099,0,0.0021,0.0021,0.002,0.002,0.002,0.0023,0.0017,0.0018,0.0008,0.0003,0.0012,-0.001,-0.0012,-0.0022,-0.0038,-0.0022,-0.0066,-0.0068,-0.0074,-0.0057,-0.0136,-0.0141,-0.0096,-0.0096,-0.0097,-0.0098,0,0,0.0016,0.0025,0.0026,0.0042,0.0039,0.0044,0.0058,0.007,0.0088,0.0071,0.0088,0.0082,0.0067,0.0064,0.0043,0.0039,0.0002,-0.0002,-0.0004,-0.0064,-0.0078,-0.0089,-0.0096,-0.0001,-0.0,0.0,-0.0158,0,0.0031,0.0053,0.0052,0.0082,0.0097,0.0096,0.0117,0.0125,0.0121,0.0126,0.0118,0.0116,0.0099,0.0091,0.0088,0.0018,-0.0001,0.0042,-0.009,-0.0095,-0.0098,-0.0097,0.0002,-0.0162,-0.0163,-0.0164,-0.0165,0,0.004,0.0058,0.0091,0.0131,0.0137,0.0154,0.0192,0.0204,0.0209,0.0203,0.0208,0.0181,0.0163,0.0145,0.0064,0.0087,0.0018,-0.003,-0.0037,-0.0051,-0.0111,-0.0172,-0.0174,-0.0173,-0.0172,-0.0172,-0.0171,0,0.0055,0.0087,0.012,0.013,0.0166,0.019,0.021,0.023,0.0248,0.0244,0.0239,0.022,0.0183,0.0128,0.0015,0.0032,-0.0091,-0.0091,-0.0163,-0.0169,-0.0131,-0.0133,-0.0127,-0.0127,-0.0127,-0.0126,-0.0126,0,0.0071,0.0095,0.0132,0.015,0.0204,0.0216,0.0269,0.028,0.0293,0.031,0.0276,0.0267,0.0181,0.0096,0.0013,-0.0106,-0.0106,-0.0149,-0.0191,-0.012,-0.0118,-0.0139,-0.0138,-0.0132,-0.0131,-0.013,-0.0129,0,0.0075,0.0095,0.0141,0.0192,0.0211,0.0248,0.0302,0.0334,0.0335,0.0346,0.0339,0.0273,0.016,0.0058,-0.0073,-0.0127,-0.0229,-0.0268,-0.0228,-0.0267,-0.0303,-0.0299,-0.0364,-0.0365,-0.0366,-0.0367,-0.0367,0,0.0077,0.0101,0.017,0.0205,0.0229,0.0285,0.0325,0.0352,0.0375,0.0351,0.0346,0.0244,0.019,-0.0017,-0.0121,-0.0294,-0.0292,-0.0365,-0.027,-0.0284,-0.0319,-0.0313,-0.0307,-0.0369,-0.0369,-0.037,-0.037,0,0.0089,0.0114,0.0158,0.0227,0.0277,0.0336,0.0384,0.0401,0.0416,0.0414,0.0357,0.026,0.0125,-0.0018,-0.0162,-0.0271,-0.0322,-0.0376,-0.0373,-0.0284,-0.0292,-0.0324,-0.0317,-0.0374,-0.0373,-0.0373,-0.0373,0,0.01,0.0135,0.0192,0.0255,0.0314,0.036,0.0393,0.0412,0.0432,0.0405,0.0375,0.0245,0.0167,-0.0011,-0.0141,-0.0255,-0.0257,-0.0267,-0.027,-0.0268,-0.017,-0.0161,-0.0232,0,0,0,0,0,0.0108,0.015,0.0213,0.0283,0.0338,0.0369,0.0419,0.0442,0.0449,0.042,0.0405,0.0287,0.0102,0.0012,-0.01,-0.016,-0.0287,-0.0295,-0.0302,-0.0394,-0.039,-0.0289,0,0,0,0,0,0,0.0115,0.0173,0.0213,0.0287,0.0331,0.039,0.042,0.0428,0.0416,0.0405,0.0307,0.0268,0.0082,0.0165,-0.0101,-0.0138,-0.0154,-0.0382,-0.0384,-0.0397,-0.0393,-0.0389,-0.0284,0,0,0,0,0]}]]